FW1683 Weather Reports


Display with metric or nautical units.
time (UTC)temp
F
wind
direction
speed
MPH
gust
MPH
rain 1hr
in
rain 24hr
in
rain mn
in
humidity
%
barometer
mb
20260505014009 62 6 2.0 4.0 0.00 0.00 0.00 86 1011.3
20260505013020 62 9 3.0 5.0 0.00 0.00 0.00 86 1011.3
20260505011018 62 17 3.0 5.0 0.00 0.00 0.00 84 1011.5
20260505010025 62 3 2.0 3.0 0.00 0.00 0.00 84 1011.6
20260505004024 63 276 1.0 2.0 0.00 0.00 0.00 83 1011.9
20260505002010 63 91 2.0 3.0 0.00 0.00 0.00 83 1012.0
20260505001015 63 84 2.0 3.0 0.00 0.00 0.00 83 1012.1
20260505000011 63 77 3.0 5.0 0.00 0.00 0.00 83 1012.2
20260504234010 63 69 3.0 4.0 0.00 0.00 0.00 83 1012.1
20260504233010 63 64 3.0 6.0 0.00 0.00 0.00 83 1012.1
20260504230032 64 44 4.0 5.0 0.00 0.00 0.00 80 1012.1
20260504224009 64 90 1.0 2.0 0.00 0.00 0.00 79 1012.0
20260504223011 64 76 1.0 3.0 0.00 0.00 0.00 80 1012.0
20260504222008 64 60 3.0 5.0 0.00 0.00 0.00 80 1012.0
20260504221009 64 56 4.0 7.0 0.00 0.00 0.00 80 1011.8
20260504220008 64 34 2.0 4.0 0.00 0.00 0.00 80 1011.9
20260504211007 64 49 4.0 7.0 0.00 0.00 0.00 80 1011.7
20260504210011 65 48 6.0 10.0 0.00 0.00 0.00 81 1011.8
20260504204010 66 24 5.0 8.0 0.00 0.00 0.00 83 1011.6
20260504203032 66 16 6.0 10.0 0.00 0.00 0.00 83 1011.4
20260504201008 66 17 7.0 11.0 0.00 0.00 0.00 81 1011.0
20260504200010 66 44 7.0 11.0 0.00 0.00 0.00 80 1010.7
20260504195008 66 50 6.0 9.0 0.00 0.00 0.00 80 1010.6
20260504193008 67 45 9.0 14.0 0.00 0.00 0.00 80 1010.3
20260504192007 67 48 10.0 15.0 0.00 0.00 0.00 79 1010.2
20260504191008 67 51 9.0 14.0 0.00 0.00 0.00 78 1010.0
20260504190009 67 47 10.0 14.0 0.00 0.00 0.00 77 1009.9
20260504185007 67 49 12.0 18.0 0.00 0.00 0.00 76 1009.9
20260504184009 68 55 12.0 19.0 0.00 0.00 0.00 76 1009.9
20260504183008 68 46 12.0 19.0 0.00 0.00 0.00 75 1009.7
20260504182008 69 48 9.0 15.0 0.00 0.00 0.00 75 1009.5
20260504181018 69 55 13.0 19.0 0.00 0.00 0.00 74 1009.5
20260504180025 70 50 11.0 17.0 0.00 0.00 0.00 70 1009.4
20260504174011 72 84 8.0 12.0 0.00 0.00 0.00 65 1009.2
20260504173015 72 99 6.0 10.0 0.00 0.00 0.00 65 1009.1
20260504172007 72 98 8.0 14.0 0.00 0.00 0.00 64 1009.0
20260504171008 72 97 8.0 12.0 0.00 0.00 0.00 63 1009.0
20260504141009 73 108 10.0 16.0 0.00 0.00 0.00 65 1009.6
20260504081008 68 218 1.0 3.0 0.00 0.00 0.00 71 1012.2
20260504050009 64 355 3.0 4.0 0.00 0.00 0.00 81 1011.9
20260504045008 64 348 2.0 3.0 0.00 0.00 0.00 81 1011.9
20260504044008 64 340 3.0 5.0 0.00 0.00 0.00 81 1011.9
20260504043009 64 315 1.0 3.0 0.00 0.00 0.00 81 1011.9
20260504041007 64 198 2.0 4.0 0.00 0.00 0.00 81 1012.1
20260504040022 64 180 1.0 2.0 0.00 0.00 0.00 81 1012.1
20260504034008 64 180 1.0 2.0 0.00 0.00 0.00 81 1012.4
20260504033028 64 180 1.0 2.0 0.00 0.00 0.00 81 1012.5
20260504031008 64 212 1.0 2.0 0.00 0.00 0.00 79 1012.7
20260504030020 64 85 1.0 2.0 0.00 0.00 0.00 79 1012.8
20260504024010 64 44 2.0 3.0 0.00 0.00 0.00 80 1012.9
20260504023012 65 28 1.0 3.0 0.00 0.00 0.00 80 1012.8
20260504021008 64 45 1.0 2.0 0.00 0.00 0.00 79 1012.8
20260504020009 64 23 2.0 3.0 0.00 0.00 0.00 78 1012.8
20260504015008 64 358 2.0 4.0 0.00 0.00 0.00 78 1012.7